QFA42 WIII-YSSY

Flight info

Callsign QFA42
Flight time N/A
Altitude 37000
Route IMABA A585 SAPDA/N0465F390 G222 BRM T11 AS A576 APOMA Y52 VELGI Y105 TARAL Y59 RIVET
Aircraft A333/H-SDE3GHIJ2J3J5M1RVWXY/LB2D1

Departure

Time 2026-05-04 00:52
Airport Soekarno-Hatta International Airport (WIII)

Arrival

Time N/A
Airport Sydney Kingsford Smith International Airport (YSSY)
Time Latitude Longitude Altitude Speed Heading
2026-05-04 00:28 -6.11728 106.66524 30 ft 0 kts 159°
2026-05-04 00:42 -6.11726 106.66524 30 ft 2 kts 156°
2026-05-04 00:42 -6.11715 106.66517 30 ft 0 kts 139°
2026-05-04 00:44 -6.11710 106.66512 30 ft 2 kts 144°
2026-05-04 00:44 -6.11695 106.66505 30 ft 2 kts 169°
2026-05-04 00:44 -6.11679 106.66504 30 ft 2 kts 188°
2026-05-04 00:45 -6.11665 106.66508 30 ft 2 kts 207°
2026-05-04 00:45 -6.11652 106.66515 30 ft 2 kts 225°
2026-05-04 00:45 -6.11643 106.66528 30 ft 2 kts 244°
2026-05-04 00:45 -6.11640 106.66534 30 ft 1 kts 249°
2026-05-04 00:47 -6.11643 106.66526 30 ft 4 kts 249°
2026-05-04 00:48 -6.11660 106.66482 30 ft 7 kts 253°
2026-05-04 00:48 -6.11653 106.66433 30 ft 7 kts 299°
2026-05-04 00:48 -6.11613 106.66404 30 ft 7 kts 332°
2026-05-04 00:48 -6.11545 106.66375 30 ft 15 kts 338°
2026-05-04 00:49 -6.11439 106.66332 30 ft 16 kts 338°
2026-05-04 00:49 -6.11340 106.66315 30 ft 14 kts 40°
2026-05-04 00:49 -6.11295 106.66394 30 ft 13 kts 69°
2026-05-04 00:49 -6.11263 106.66479 29 ft 13 kts 69°
2026-05-04 00:50 -6.11223 106.66585 27 ft 19 kts 69°
2026-05-04 00:50 -6.11172 106.66715 27 ft 19 kts 68°
2026-05-04 00:50 -6.11122 106.66836 27 ft 18 kts 68°
2026-05-04 00:50 -6.11071 106.66951 27 ft 17 kts 59°
2026-05-04 00:51 -6.10994 106.66986 27 ft 13 kts 316°
2026-05-04 00:51 -6.10942 106.66918 27 ft 12 kts 292°
2026-05-04 00:51 -6.10931 106.66840 27 ft 11 kts 265°
2026-05-04 00:51 -6.10957 106.66756 27 ft 25 kts 250°
2026-05-04 00:52 -6.11091 106.66415 28 ft 87 kts 249°
2026-05-04 00:52 -6.11372 106.65708 33 ft 142 kts 248°
2026-05-04 00:52 -6.11792 106.64664 204 ft 173 kts 248°
2026-05-04 00:52 -6.12202 106.63628 960 ft 162 kts 249°
2026-05-04 00:53 -6.12502 106.62529 1352 ft 180 kts 274°
2026-05-04 00:53 -6.12105 106.61292 1845 ft 197 kts 296°
2026-05-04 00:53 -6.11597 106.60010 2365 ft 218 kts 289°
2026-05-04 00:53 -6.11085 106.58469 2893 ft 255 kts 288°
2026-05-04 00:54 -6.10501 106.56629 3438 ft 299 kts 288°
2026-05-04 00:54 -6.09879 106.54623 3885 ft 292 kts 287°
2026-05-04 00:54 -6.09300 106.52769 4245 ft 279 kts 290°
2026-05-04 00:54 -6.08301 106.51154 4645 ft 276 kts 317°
2026-05-04 00:55 -6.06670 106.50180 5094 ft 276 kts 345°
2026-05-04 00:55 -6.04763 106.50071 5552 ft 275 kts 13°
2026-05-04 00:55 -6.02971 106.50683 6012 ft 275 kts 24°
2026-05-04 00:55 -6.01382 106.51743 6434 ft 274 kts 49°
2026-05-04 00:56 -6.00454 106.53396 6884 ft 275 kts 76°
2026-05-04 00:56 -6.00245 106.55295 7340 ft 277 kts 85°
2026-05-04 00:56 -6.00020 106.57243 7781 ft 280 kts 83°
2026-05-04 00:56 -5.99753 106.59251 8232 ft 281 kts 82°
2026-05-04 00:57 -5.99477 106.61248 8675 ft 283 kts 82°
2026-05-04 00:57 -5.99198 106.63250 9117 ft 284 kts 82°
2026-05-04 00:57 -5.98921 106.65232 9553 ft 287 kts 82°
2026-05-04 00:57 -5.98638 106.67255 9990 ft 289 kts 82°
2026-05-04 00:58 -5.98354 106.69283 10422 ft 291 kts 82°
2026-05-04 00:58 -5.98070 106.71318 10860 ft 291 kts 82°
2026-05-04 00:58 -5.97782 106.73373 11294 ft 294 kts 82°
2026-05-04 00:58 -5.97496 106.75419 11726 ft 294 kts 81°
2026-05-04 00:59 -5.97210 106.77454 12158 ft 301 kts 82°
2026-05-04 00:59 -5.96918 106.79541 12597 ft 307 kts 81°
2026-05-04 00:59 -5.96642 106.81684 13029 ft 313 kts 86°
2026-05-04 00:59 -5.96972 106.83855 13444 ft 320 kts 110°
2026-05-04 01:00 -5.98151 106.85776 13886 ft 328 kts 132°
2026-05-04 01:00 -5.99841 106.87319 14333 ft 331 kts 134°
2026-05-04 01:00 -6.01498 106.88963 14770 ft 335 kts 133°
2026-05-04 01:00 -6.03145 106.90622 15190 ft 339 kts 133°
2026-05-04 01:01 -6.04797 106.92297 15606 ft 342 kts 133°
2026-05-04 01:01 -6.06492 106.94015 16033 ft 345 kts 132°
2026-05-04 01:01 -6.08171 106.95718 16446 ft 348 kts 132°
2026-05-04 01:01 -6.09884 106.97456 16860 ft 351 kts 132°
2026-05-04 01:02 -6.11578 106.99174 17264 ft 353 kts 132°
2026-05-04 01:02 -6.13274 107.00895 17670 ft 355 kts 132°
2026-05-04 01:02 -6.14987 107.02634 18086 ft 357 kts 132°
2026-05-04 01:02 -6.16727 107.04399 18502 ft 358 kts 132°
2026-05-04 01:03 -6.18468 107.06168 18907 ft 359 kts 133°
2026-05-04 01:03 -6.20226 107.07951 19320 ft 360 kts 133°
2026-05-04 01:03 -6.21989 107.09741 19734 ft 361 kts 133°
2026-05-04 01:03 -6.23913 107.11314 20119 ft 365 kts 148°
2026-05-04 01:04 -6.26231 107.12413 20563 ft 365 kts 153°
2026-05-04 01:04 -6.28504 107.13486 20972 ft 365 kts 153°
2026-05-04 01:04 -6.30806 107.14569 21384 ft 365 kts 153°
2026-05-04 01:04 -6.33101 107.15650 21797 ft 364 kts 153°
2026-05-04 01:05 -6.35415 107.16740 22214 ft 364 kts 153°
2026-05-04 01:05 -6.37704 107.17820 22637 ft 363 kts 153°
2026-05-04 01:05 -6.39970 107.18889 23058 ft 362 kts 153°
2026-05-04 01:05 -6.42273 107.19974 23487 ft 361 kts 153°
2026-05-04 01:06 -6.44529 107.21040 23913 ft 360 kts 153°
2026-05-04 01:06 -6.46805 107.22113 24344 ft 359 kts 153°
2026-05-04 01:06 -6.49059 107.23177 24773 ft 358 kts 153°
2026-05-04 01:06 -6.51292 107.24232 25197 ft 357 kts 153°
2026-05-04 01:07 -6.53549 107.25297 25628 ft 355 kts 153°
2026-05-04 01:07 -6.55784 107.26352 26055 ft 354 kts 153°
2026-05-04 01:07 -6.58006 107.27401 26483 ft 352 kts 152°
2026-05-04 01:07 -6.60221 107.28447 26908 ft 350 kts 152°
2026-05-04 01:08 -6.62416 107.29484 27331 ft 348 kts 152°
2026-05-04 01:08 -6.64600 107.30514 27755 ft 345 kts 152°
2026-05-04 01:08 -6.66762 107.31537 28173 ft 341 kts 152°
2026-05-04 01:08 -6.68899 107.32546 28595 ft 338 kts 152°
2026-05-04 01:09 -6.71029 107.33553 29022 ft 333 kts 152°
2026-05-04 01:09 -6.73119 107.34541 29455 ft 328 kts 152°
2026-05-04 01:09 -6.75169 107.35510 29875 ft 322 kts 152°
2026-05-04 01:09 -6.77169 107.36455 30286 ft 316 kts 153°
2026-05-04 01:10 -6.79136 107.37385 30695 ft 308 kts 153°
2026-05-04 01:10 -6.81070 107.38298 31029 ft 306 kts 153°
2026-05-04 01:10 -6.83018 107.39220 31137 ft 313 kts 153°
2026-05-04 01:10 -6.85001 107.40158 31297 ft 318 kts 153°
2026-05-04 01:11 -6.87024 107.41114 31451 ft 324 kts 153°
2026-05-04 01:11 -6.89093 107.42093 31605 ft 330 kts 153°
2026-05-04 01:11 -6.91206 107.43091 31759 ft 336 kts 153°
2026-05-04 01:11 -6.93323 107.44093 31906 ft 342 kts 154°
2026-05-04 01:12 -6.95519 107.45132 32054 ft 349 kts 154°
2026-05-04 01:12 -6.97728 107.46176 32204 ft 355 kts 154°
2026-05-04 01:12 -6.99973 107.47237 32348 ft 361 kts 154°
2026-05-04 01:12 -7.02255 107.48317 32496 ft 366 kts 154°
2026-05-04 01:13 -7.04577 107.49415 32646 ft 372 kts 154°
2026-05-04 01:13 -7.06940 107.50532 32807 ft 377 kts 154°
2026-05-04 01:13 -7.09193 107.51907 32956 ft 379 kts 141°
2026-05-04 01:13 -7.11288 107.53543 33148 ft 383 kts 141°
2026-05-04 01:14 -7.13412 107.55177 33299 ft 388 kts 141°
2026-05-04 01:14 -7.15583 107.56850 33458 ft 393 kts 141°
2026-05-04 01:14 -7.17750 107.58521 33613 ft 397 kts 141°
2026-05-04 01:14 -7.19962 107.60226 33769 ft 402 kts 141°
2026-05-04 01:15 -7.22187 107.61941 33924 ft 406 kts 141°
2026-05-04 01:15 -7.24433 107.63673 34078 ft 411 kts 141°
2026-05-04 01:15 -7.26722 107.65438 34235 ft 415 kts 141°
2026-05-04 01:15 -7.29009 107.67203 34390 ft 419 kts 141°
2026-05-04 01:16 -7.31351 107.69009 34545 ft 423 kts 141°
2026-05-04 01:16 -7.33676 107.70804 34699 ft 427 kts 141°
2026-05-04 01:16 -7.36041 107.72628 34852 ft 431 kts 141°
2026-05-04 01:16 -7.38434 107.74476 35010 ft 435 kts 141°
2026-05-04 01:17 -7.40841 107.76332 35166 ft 439 kts 141°
2026-05-04 01:17 -7.43288 107.78223 35322 ft 442 kts 141°
2026-05-04 01:17 -7.45715 107.80096 35473 ft 446 kts 141°
2026-05-04 01:17 -7.48178 107.81998 35625 ft 449 kts 141°
2026-05-04 01:18 -7.50681 107.83931 35776 ft 452 kts 141°
2026-05-04 01:18 -7.53163 107.85849 35925 ft 455 kts 141°
2026-05-04 01:18 -7.55680 107.87794 36077 ft 457 kts 141°
2026-05-04 01:18 -7.58175 107.89720 36224 ft 459 kts 141°
2026-05-04 01:19 -7.60708 107.91679 36373 ft 461 kts 141°
2026-05-04 01:19 -7.63258 107.93649 36523 ft 463 kts 141°
2026-05-04 01:19 -7.65786 107.95603 36669 ft 464 kts 141°
2026-05-04 01:19 -7.68312 107.97557 36818 ft 466 kts 141°
2026-05-04 01:20 -7.70885 107.99547 36958 ft 467 kts 141°
2026-05-04 01:20 -7.76021 108.03519 36932 ft 474 kts 141°
2026-05-04 01:21 -7.81222 108.07542 36933 ft 480 kts 141°
2026-05-04 01:21 -7.86491 108.11621 36927 ft 483 kts 142°
2026-05-04 01:22 -7.91773 108.15710 36926 ft 486 kts 141°
2026-05-04 01:22 -7.97099 108.19834 36926 ft 487 kts 141°
2026-05-04 01:23 -8.02366 108.23915 36917 ft 481 kts 141°
2026-05-04 01:23 -8.07609 108.27995 36911 ft 480 kts 141°
2026-05-04 01:24 -8.12805 108.32104 36907 ft 480 kts 141°
2026-05-04 01:24 -8.18018 108.36226 36908 ft 480 kts 141°
2026-05-04 01:25 -8.23276 108.40383 36908 ft 481 kts 141°
2026-05-04 01:25 -8.28505 108.44519 36904 ft 481 kts 141°
2026-05-04 01:26 -8.33709 108.48637 36903 ft 481 kts 141°
2026-05-04 01:26 -8.38902 108.52748 36902 ft 480 kts 141°
2026-05-04 01:27 -8.44080 108.56847 36904 ft 480 kts 141°
2026-05-04 01:27 -8.49234 108.60930 36905 ft 481 kts 141°
2026-05-04 01:28 -8.54465 108.65076 36905 ft 481 kts 141°
2026-05-04 01:28 -8.59703 108.69227 36904 ft 481 kts 141°
2026-05-04 01:29 -8.64977 108.73409 36904 ft 481 kts 141°
2026-05-04 01:29 -8.70215 108.77564 36904 ft 482 kts 141°
2026-05-04 01:30 -8.75486 108.81747 36908 ft 481 kts 141°
2026-05-04 01:30 -8.80716 108.85898 36918 ft 481 kts 141°
2026-05-04 01:31 -8.85950 108.90055 36921 ft 482 kts 141°
2026-05-04 01:31 -8.91208 108.94233 36922 ft 482 kts 141°
2026-05-04 01:32 -8.96482 108.98423 36923 ft 483 kts 141°
2026-05-04 01:32 -9.01745 109.02608 36925 ft 483 kts 141°
2026-05-04 01:33 -9.06970 109.06763 36926 ft 482 kts 141°
2026-05-04 01:33 -9.12274 109.10983 36922 ft 482 kts 141°
2026-05-04 01:34 -9.17555 109.15187 36923 ft 483 kts 141°
2026-05-04 01:34 -9.22888 109.19433 36923 ft 483 kts 141°
2026-05-04 01:35 -9.28256 109.23709 36924 ft 483 kts 141°
2026-05-04 01:35 -9.33577 109.27950 36925 ft 484 kts 141°
2026-05-04 01:36 -9.38804 109.32116 36924 ft 485 kts 141°
2026-05-04 01:36 -9.44106 109.36345 36925 ft 484 kts 141°
2026-05-04 01:37 -9.49419 109.40584 36926 ft 485 kts 141°
2026-05-04 01:37 -9.54736 109.44827 36925 ft 484 kts 141°
2026-05-04 01:38 -9.60057 109.49077 36927 ft 485 kts 141°
2026-05-04 01:38 -9.65364 109.53316 36926 ft 486 kts 142°
2026-05-04 01:39 -9.70652 109.57541 36927 ft 486 kts 142°
2026-05-04 01:39 -9.75962 109.61787 36927 ft 486 kts 142°
2026-05-04 01:40 -9.81270 109.66031 36925 ft 486 kts 141°
2026-05-04 01:40 -9.86546 109.70254 36925 ft 485 kts 142°
2026-05-04 01:41 -9.91856 109.74504 36924 ft 485 kts 142°
2026-05-04 01:41 -9.97127 109.78725 36924 ft 484 kts 142°
2026-05-04 01:42 -10.02396 109.82947 36924 ft 484 kts 142°
2026-05-04 01:42 -10.07676 109.87178 36928 ft 486 kts 142°
2026-05-04 01:43 -10.12997 109.91444 36927 ft 486 kts 142°
2026-05-04 01:43 -10.18384 109.95766 36930 ft 485 kts 142°
2026-05-04 01:44 -10.23787 110.00103 36931 ft 485 kts 142°
2026-05-04 01:44 -10.29182 110.04434 36929 ft 485 kts 142°
2026-05-04 01:45 -10.34568 110.08761 36930 ft 485 kts 142°
2026-05-04 01:45 -10.42648 110.15255 36936 ft 487 kts 142°
2026-05-04 01:46 -10.47992 110.19553 36941 ft 486 kts 142°
2026-05-04 01:46 -10.53373 110.23882 36943 ft 486 kts 143°
2026-05-04 01:47 -10.58755 110.28213 36944 ft 485 kts 142°
2026-05-04 01:47 -10.64061 110.32486 36946 ft 485 kts 143°
2026-05-04 01:48 -10.69389 110.36780 36945 ft 485 kts 143°
2026-05-04 01:48 -10.74679 110.41043 36947 ft 486 kts 143°
2026-05-04 01:49 -10.79991 110.45326 36946 ft 485 kts 143°
2026-05-04 01:49 -10.85327 110.49632 36947 ft 486 kts 143°
2026-05-04 01:50 -10.90607 110.53893 36946 ft 485 kts 143°
2026-05-04 01:50 -10.95937 110.58197 36947 ft 486 kts 143°
2026-05-04 01:51 -11.01231 110.62475 36947 ft 486 kts 143°
2026-05-04 01:51 -11.06516 110.66747 36941 ft 486 kts 143°
2026-05-04 01:52 -11.11809 110.71027 36943 ft 484 kts 143°
2026-05-04 01:52 -11.17206 110.75393 36943 ft 485 kts 143°
2026-05-04 01:53 -11.22614 110.79771 36946 ft 485 kts 143°
2026-05-04 01:53 -11.28008 110.84139 36946 ft 486 kts 143°
2026-05-04 01:54 -11.33408 110.88515 36945 ft 485 kts 143°
2026-05-04 01:54 -11.38740 110.92838 36943 ft 485 kts 143°
2026-05-04 01:55 -11.44086 110.97173 36944 ft 485 kts 143°
2026-05-04 01:55 -11.49429 111.01508 36945 ft 485 kts 143°
2026-05-04 01:56 -11.54733 111.05814 36947 ft 485 kts 143°
2026-05-04 01:56 -11.60065 111.10146 36951 ft 486 kts 143°
2026-05-04 01:57 -11.65403 111.14484 36953 ft 486 kts 143°
2026-05-04 01:57 -11.70721 111.18809 36956 ft 487 kts 143°
2026-05-04 01:58 -11.76117 111.23198 36960 ft 487 kts 143°
2026-05-04 01:58 -11.81448 111.27537 36960 ft 486 kts 143°
2026-05-04 01:59 -11.86828 111.31917 36963 ft 486 kts 143°
2026-05-04 01:59 -11.92129 111.36237 36967 ft 487 kts 143°
2026-05-04 02:00 -11.97407 111.40539 36965 ft 486 kts 143°
2026-05-04 02:00 -12.01953 111.45665 36982 ft 491 kts 122°
2026-05-04 02:01 -12.05368 111.51765 36959 ft 493 kts 122°
2026-05-04 02:01 -12.08867 111.57762 36966 ft 491 kts 122°
2026-05-04 02:02 -12.12397 111.63790 36969 ft 491 kts 122°
2026-05-04 02:02 -12.15971 111.69893 36965 ft 492 kts 122°
2026-05-04 02:03 -12.19577 111.76057 36964 ft 492 kts 122°
2026-05-04 02:03 -12.23157 111.82176 36963 ft 491 kts 122°
2026-05-04 02:04 -12.26769 111.88357 36964 ft 491 kts 122°
2026-05-04 02:04 -12.30342 111.94477 36964 ft 491 kts 122°
2026-05-04 02:05 -12.33927 112.00621 36966 ft 492 kts 122°
2026-05-04 02:05 -12.37504 112.06752 36962 ft 492 kts 122°
2026-05-04 02:06 -12.41068 112.12867 36959 ft 492 kts 122°
2026-05-04 02:06 -12.44648 112.19012 36957 ft 493 kts 122°
2026-05-04 02:07 -12.48225 112.25157 36954 ft 492 kts 122°
2026-05-04 02:07 -12.51792 112.31289 36961 ft 492 kts 122°
2026-05-04 02:08 -12.55320 112.37358 36954 ft 493 kts 122°
2026-05-04 02:08 -12.58871 112.43470 36957 ft 492 kts 122°
2026-05-04 02:09 -12.62409 112.49564 36965 ft 493 kts 122°
2026-05-04 02:09 -12.65931 112.55634 36964 ft 493 kts 122°
2026-05-04 02:10 -12.69447 112.61700 36966 ft 492 kts 122°
2026-05-04 02:10 -12.72993 112.67819 36957 ft 492 kts 122°
2026-05-04 02:11 -12.76562 112.73983 36958 ft 493 kts 122°
2026-05-04 02:11 -12.80105 112.80105 36950 ft 494 kts 122°
2026-05-04 02:12 -12.83669 112.86270 36943 ft 493 kts 122°
2026-05-04 02:12 -12.87213 112.92403 36953 ft 493 kts 122°
2026-05-04 02:13 -12.90729 112.98493 36960 ft 493 kts 123°
2026-05-04 02:13 -12.96972 113.09314 36956 ft 493 kts 123°
2026-05-04 02:14 -13.17885 113.45660 36981 ft 493 kts 123°
2026-05-04 02:14 -13.38875 113.82299 36950 ft 494 kts 123°
2026-05-04 02:15 -13.59580 114.18591 36967 ft 493 kts 123°
2026-05-04 02:15 -13.80497 114.55404 36998 ft 495 kts 123°
2026-05-04 02:16 -14.01473 114.92493 36970 ft 497 kts 123°
2026-05-04 02:16 -14.22358 115.29588 37007 ft 497 kts 123°
2026-05-04 02:17 -14.43159 115.66724 37015 ft 496 kts 123°
2026-05-04 02:17 -14.63838 116.03792 36999 ft 497 kts 123°
2026-05-04 02:18 -14.84585 116.41169 37000 ft 498 kts 123°
2026-05-04 02:18 -15.05272 116.78619 36955 ft 500 kts 123°
2026-05-04 02:19 -15.26001 117.16317 36994 ft 502 kts 123°
2026-05-04 02:19 -15.46794 117.54295 37006 ft 500 kts 123°
2026-05-04 02:20 -15.67445 117.92199 36959 ft 499 kts 123°
2026-05-04 02:20 -15.88305 118.30715 36980 ft 500 kts 123°
2026-05-04 02:21 -16.09150 118.69392 36989 ft 499 kts 124°
2026-05-04 02:21 -16.29409 119.07185 37015 ft 499 kts 124°
2026-05-04 02:22 -16.49634 119.45122 37022 ft 501 kts 124°
2026-05-04 02:22 -16.70154 119.83816 36954 ft 502 kts 124°
2026-05-04 02:23 -16.90263 120.21954 36976 ft 500 kts 124°
2026-05-04 02:23 -17.10392 120.60348 37023 ft 503 kts 124°
2026-05-04 02:24 -17.30473 120.98878 37012 ft 504 kts 124°
2026-05-04 02:24 -17.50535 121.37601 37043 ft 506 kts 125°
2026-05-04 02:25 -17.70501 121.76350 37002 ft 506 kts 124°
2026-05-04 02:25 -17.90551 122.15522 37023 ft 506 kts 125°
2026-05-04 02:26 -18.11896 122.53574 37064 ft 505 kts 126°
2026-05-04 02:26 -18.32107 122.92797 36985 ft 500 kts 135°
2026-05-04 02:27 -18.44884 123.10173 37151 ft 504 kts 131°
2026-05-04 02:27 -18.49912 123.18900 37039 ft 517 kts 119°
2026-05-04 02:27 -18.50931 123.22340 37085 ft 529 kts 107°
2026-05-04 02:27 -18.51475 123.26047 37081 ft 532 kts 105°
2026-05-04 02:28 -18.52366 123.29559 37059 ft 522 kts 117°
2026-05-04 02:28 -18.53901 123.32819 37087 ft 508 kts 130°
2026-05-04 02:28 -18.57772 123.38567 37061 ft 509 kts 128°
2026-05-04 02:29 -18.61183 123.44749 37072 ft 511 kts 127°
2026-05-04 02:29 -18.64561 123.50962 37072 ft 513 kts 127°
2026-05-04 02:30 -18.67961 123.57224 37066 ft 512 kts 127°
2026-05-04 02:30 -18.71334 123.63444 37066 ft 511 kts 127°
2026-05-04 02:31 -18.74693 123.69643 37043 ft 513 kts 126°
2026-05-04 02:31 -18.78062 123.75870 37044 ft 512 kts 127°
2026-05-04 02:32 -18.81439 123.82113 37043 ft 515 kts 126°
2026-05-04 02:32 -18.84820 123.88371 37045 ft 514 kts 127°
2026-05-04 02:33 -18.88216 123.94665 37047 ft 516 kts 126°
2026-05-04 02:33 -18.91592 124.00932 37045 ft 515 kts 126°
2026-05-04 02:34 -18.94983 124.07226 37047 ft 514 kts 126°
2026-05-04 02:34 -18.98203 124.13216 37057 ft 515 kts 127°
2026-05-04 02:35 -19.01573 124.19483 37064 ft 516 kts 127°
2026-05-04 02:35 -19.04972 124.25814 37059 ft 519 kts 126°
2026-05-04 02:36 -19.08339 124.32097 37060 ft 515 kts 126°
2026-05-04 02:36 -19.11721 124.38413 37078 ft 518 kts 127°
2026-05-04 02:37 -19.15101 124.44724 37078 ft 518 kts 127°
2026-05-04 02:37 -19.18492 124.51070 37076 ft 519 kts 127°
2026-05-04 02:38 -19.21875 124.57403 37079 ft 518 kts 127°
2026-05-04 02:38 -19.25228 124.63688 37073 ft 519 kts 127°
2026-05-04 02:39 -19.28601 124.70016 37064 ft 519 kts 126°
2026-05-04 02:39 -19.31978 124.76356 37064 ft 520 kts 127°
2026-05-04 02:40 -19.35345 124.82691 37067 ft 520 kts 127°
2026-05-04 02:40 -19.38726 124.89053 37061 ft 518 kts 127°
2026-05-04 02:41 -19.42088 124.95372 37060 ft 521 kts 127°
2026-05-04 02:41 -19.45482 125.01768 37070 ft 520 kts 127°
2026-05-04 02:42 -19.48844 125.08102 37077 ft 519 kts 127°
2026-05-04 02:42 -19.52231 125.14490 37079 ft 523 kts 127°
2026-05-04 02:43 -19.55627 125.20907 37070 ft 524 kts 126°
2026-05-04 02:43 -19.59035 125.27357 37071 ft 523 kts 127°
2026-05-04 02:44 -19.62439 125.33794 37071 ft 525 kts 127°
2026-05-04 02:44 -19.65825 125.40212 37062 ft 525 kts 127°
2026-05-04 02:45 -19.69219 125.46654 37068 ft 526 kts 127°
2026-05-04 02:45 -19.72620 125.53114 37071 ft 525 kts 127°
2026-05-04 02:46 -19.76006 125.59547 37071 ft 528 kts 127°
2026-05-04 02:46 -19.79411 125.66032 37066 ft 528 kts 126°
2026-05-04 02:47 -19.82823 125.72535 37059 ft 526 kts 126°
2026-05-04 02:47 -19.86216 125.79007 37056 ft 528 kts 126°
2026-05-04 02:48 -19.89621 125.85510 37056 ft 530 kts 126°
2026-05-04 02:48 -19.93023 125.92017 37049 ft 527 kts 126°
2026-05-04 02:49 -19.96420 125.98520 37057 ft 530 kts 126°
2026-05-04 02:49 -19.99790 126.04977 37064 ft 531 kts 126°
2026-05-04 02:50 -20.03188 126.11497 37068 ft 530 kts 126°
2026-05-04 02:50 -20.06614 126.18075 37079 ft 533 kts 126°
2026-05-04 02:51 -20.10044 126.24676 37087 ft 538 kts 125°
2026-05-04 02:51 -20.13492 126.31319 37088 ft 543 kts 126°
2026-05-04 02:52 -20.16970 126.38022 37087 ft 545 kts 125°
2026-05-04 02:52 -20.20446 126.44740 37087 ft 547 kts 125°
2026-05-04 02:53 -20.35164 126.73246 37110 ft 550 kts 123°
2026-05-04 02:53 -20.57326 127.16454 37115 ft 552 kts 123°
2026-05-04 02:54 -20.79313 127.59647 37160 ft 556 kts 122°
2026-05-04 02:54 -21.01242 128.03062 37099 ft 559 kts 121°
2026-05-04 02:55 -21.34332 128.69287 37131 ft 564 kts 121°
2026-05-04 02:55 -21.45466 128.91746 37013 ft 566 kts 121°
2026-05-04 02:56 -21.56413 129.13904 37106 ft 567 kts 121°
2026-05-04 02:56 -21.78588 129.59078 37157 ft 571 kts 120°
2026-05-04 02:57 -22.00559 130.04259 37117 ft 573 kts 119°
2026-05-04 02:57 -22.19032 130.42549 37147 ft 576 kts 119°
2026-05-04 02:58 -22.38556 130.83247 37080 ft 574 kts 118°
2026-05-04 02:58 -22.52587 131.12347 37106 ft 574 kts 115°
2026-05-04 02:59 -22.56027 131.20123 37138 ft 574 kts 119°
2026-05-04 02:59 -22.67000 131.43382 37184 ft 577 kts 118°
2026-05-04 03:00 -22.88885 131.90053 37129 ft 581 kts 117°
2026-05-04 03:00 -23.10805 132.37320 37259 ft 584 kts 117°
2026-05-04 03:01 -23.32640 132.84758 37155 ft 586 kts 116°
2026-05-04 03:01 -23.54324 133.32373 37213 ft 588 kts 116°
2026-05-04 03:02 -23.76134 133.80756 37194 ft 590 kts 115°
2026-05-04 03:02 -24.02305 134.26003 37237 ft 585 kts 137°
2026-05-04 03:02 -24.20876 134.43007 37332 ft 576 kts 152°
2026-05-04 03:03 -24.40674 134.57956 37278 ft 580 kts 146°
2026-05-04 03:03 -24.57912 134.76880 37173 ft 587 kts 129°
2026-05-04 03:03 -24.70870 134.99646 37255 ft 588 kts 115°
2026-05-04 03:03 -24.79066 135.24992 37318 ft 585 kts 103°
2026-05-04 03:04 -24.86404 135.50171 37223 ft 589 kts 112°
2026-05-04 03:04 -24.88588 135.54518 37190 ft 589 kts 128°
2026-05-04 03:04 -24.91325 135.57812 37200 ft 584 kts 143°
2026-05-04 03:04 -24.94610 135.60316 37206 ft 572 kts 159°
2026-05-04 03:05 -24.98217 135.62033 37223 ft 564 kts 167°
2026-05-04 03:05 -25.05612 135.65131 37190 ft 567 kts 167°
2026-05-04 03:06 -25.12982 135.68268 37159 ft 570 kts 163°
2026-05-04 03:06 -25.16464 135.70497 37156 ft 582 kts 147°
2026-05-04 03:06 -25.19397 135.73528 37177 ft 588 kts 132°
2026-05-04 03:06 -25.21702 135.77272 37171 ft 590 kts 117°
2026-05-04 03:07 -25.23677 135.81229 37175 ft 590 kts 123°
2026-05-04 03:07 -25.26210 135.84763 37146 ft 587 kts 134°
2026-05-04 03:07 -25.28855 135.88145 37175 ft 588 kts 131°
2026-05-04 03:08 -25.34055 135.95219 37159 ft 590 kts 130°
2026-05-04 03:08 -25.47070 136.13077 37193 ft 591 kts 130°
2026-05-04 03:09 -25.77788 136.55562 37227 ft 591 kts 130°
2026-05-04 03:09 -26.08694 136.98605 37162 ft 592 kts 130°
2026-05-04 03:10 -26.39173 137.41515 37171 ft 592 kts 130°
2026-05-04 03:10 -26.69764 137.84999 37096 ft 592 kts 129°
2026-05-04 03:11 -27.00125 138.28580 37196 ft 592 kts 129°
2026-05-04 03:11 -27.30611 138.72760 37124 ft 592 kts 129°
2026-05-04 03:12 -27.60621 139.16708 37145 ft 590 kts 129°
2026-05-04 03:12 -27.90331 139.60683 37198 ft 588 kts 129°
2026-05-04 03:13 -28.06711 139.85083 37095 ft 588 kts 128°
2026-05-04 03:13 -28.11407 139.92114 37090 ft 587 kts 128°
2026-05-04 03:14 -28.16073 139.99103 37094 ft 586 kts 128°
2026-05-04 03:14 -28.20768 140.06155 37096 ft 587 kts 128°
2026-05-04 03:15 -28.25467 140.13222 37093 ft 588 kts 128°
2026-05-04 03:15 -28.30183 140.20322 37095 ft 588 kts 128°
2026-05-04 03:16 -28.34832 140.27339 37095 ft 587 kts 128°
2026-05-04 03:16 -28.39535 140.34447 37099 ft 589 kts 128°
2026-05-04 03:17 -28.44218 140.41540 37104 ft 590 kts 128°
2026-05-04 03:17 -28.48905 140.48645 37101 ft 589 kts 128°
2026-05-04 03:18 -28.53599 140.55774 37102 ft 588 kts 128°
2026-05-04 03:18 -28.58277 140.62897 37106 ft 589 kts 128°
2026-05-04 03:19 -28.62927 140.69977 37084 ft 588 kts 127°
2026-05-04 03:19 -28.67585 140.77089 37091 ft 588 kts 128°
2026-05-04 03:20 -28.72246 140.84221 37095 ft 588 kts 128°
2026-05-04 03:20 -28.76909 140.91360 37097 ft 588 kts 128°
2026-05-04 03:21 -28.81543 140.98473 37097 ft 588 kts 127°
2026-05-04 03:21 -28.86185 141.05605 37100 ft 588 kts 127°
2026-05-04 03:22 -28.90845 141.12782 37100 ft 588 kts 127°
2026-05-04 03:22 -28.95440 141.19865 37101 ft 589 kts 127°
2026-05-04 03:23 -29.00094 141.27060 37103 ft 589 kts 127°
2026-05-04 03:23 -29.04744 141.34256 37101 ft 590 kts 127°
2026-05-04 03:23 -29.07067 141.37859 37221 ft 588 kts 128°
2026-05-04 03:24 -29.09388 141.41450 37160 ft 591 kts 127°
2026-05-04 03:24 -29.13999 141.48614 37186 ft 590 kts 128°
2026-05-04 03:25 -29.18663 141.55864 37181 ft 589 kts 127°
2026-05-04 03:25 -29.23267 141.63037 37177 ft 590 kts 127°
2026-05-04 03:26 -29.27905 141.70283 37152 ft 590 kts 127°
2026-05-04 03:26 -29.32501 141.77466 37162 ft 590 kts 127°
2026-05-04 03:27 -29.35577 141.82285 37165 ft 590 kts 127°
2026-05-04 03:27 -29.40200 141.89540 37162 ft 590 kts 127°
2026-05-04 03:28 -29.44833 141.96815 37165 ft 590 kts 127°
2026-05-04 03:28 -29.49432 142.04053 37167 ft 589 kts 127°
2026-05-04 03:29 -29.54051 142.11339 37168 ft 589 kts 127°
2026-05-04 03:29 -29.58621 142.18555 37161 ft 589 kts 127°
2026-05-04 03:30 -29.63206 142.25809 37170 ft 589 kts 127°
2026-05-04 03:30 -29.67845 142.33157 37165 ft 590 kts 127°
2026-05-04 03:31 -29.72400 142.40396 37170 ft 591 kts 127°
2026-05-04 03:31 -29.77015 142.47742 37169 ft 589 kts 127°
2026-05-04 03:32 -29.81575 142.55003 37174 ft 591 kts 127°
2026-05-04 03:32 -29.86156 142.62318 37168 ft 590 kts 127°
2026-05-04 03:33 -29.90788 142.69640 37139 ft 589 kts 130°
2026-05-04 03:33 -29.95754 142.76590 37150 ft 589 kts 131°
2026-05-04 03:34 -30.00699 142.83607 37151 ft 590 kts 130°
2026-05-04 03:34 -30.05623 142.90611 37153 ft 591 kts 130°
2026-05-04 03:35 -30.10586 142.97690 37154 ft 592 kts 130°
2026-05-04 03:35 -30.15502 143.04706 37145 ft 592 kts 130°
2026-05-04 03:36 -30.20411 143.11729 37140 ft 590 kts 130°
2026-05-04 03:36 -30.25327 143.18765 37147 ft 591 kts 130°
2026-05-04 03:37 -30.30251 143.25835 37148 ft 591 kts 130°
2026-05-04 03:37 -30.35167 143.32906 37149 ft 590 kts 131°
2026-05-04 03:38 -30.40052 143.39944 37151 ft 590 kts 130°
2026-05-04 03:38 -30.44940 143.46994 37154 ft 589 kts 130°
2026-05-04 03:39 -30.49789 143.54009 37155 ft 589 kts 130°
2026-05-04 03:39 -30.54627 143.61014 37154 ft 589 kts 130°
2026-05-04 03:40 -30.59500 143.68076 37137 ft 590 kts 130°
2026-05-04 03:40 -30.64356 143.75142 37145 ft 590 kts 130°
2026-05-04 03:41 -30.69168 143.82144 37149 ft 588 kts 130°
2026-05-04 03:41 -30.74007 143.89198 37151 ft 588 kts 130°
2026-05-04 03:42 -30.78832 143.96248 37154 ft 588 kts 129°
2026-05-04 03:42 -30.83618 144.03256 37151 ft 588 kts 129°
2026-05-04 03:43 -30.88452 144.10350 37150 ft 587 kts 130°
2026-05-04 03:43 -30.93249 144.17397 37152 ft 587 kts 130°
2026-05-04 03:44 -30.98072 144.24495 37154 ft 588 kts 130°
2026-05-04 03:44 -31.02884 144.31589 37148 ft 587 kts 129°
2026-05-04 03:45 -31.07676 144.38660 37149 ft 587 kts 129°
2026-05-04 03:45 -31.12451 144.45731 37131 ft 587 kts 130°
2026-05-04 03:46 -31.15091 144.49644 37137 ft 587 kts 130°
2026-05-04 03:55 -31.17668 144.53462 37137 ft 587 kts 129°
2026-05-04 03:55 -31.22421 144.60529 37140 ft 589 kts 130°
2026-05-04 03:56 -31.27194 144.67627 37127 ft 589 kts 129°
2026-05-04 03:56 -31.31961 144.74731 37127 ft 588 kts 129°
2026-05-04 03:57 -31.36752 144.81888 37128 ft 589 kts 129°
2026-05-04 03:57 -31.41503 144.88998 37128 ft 588 kts 129°
2026-05-04 03:58 -31.48644 144.99705 37127 ft 587 kts 129°
2026-05-04 03:58 -31.53367 145.06808 37125 ft 588 kts 128°
2026-05-04 03:59 -31.58130 145.13980 37126 ft 588 kts 129°
2026-05-04 03:59 -31.62825 145.21062 37133 ft 586 kts 129°
2026-05-04 04:00 -31.67564 145.28224 37130 ft 587 kts 129°
2026-05-04 04:00 -31.72257 145.35332 37132 ft 586 kts 129°
2026-05-04 04:01 -31.76999 145.42528 37135 ft 587 kts 129°
2026-05-04 04:01 -31.81673 145.49629 37128 ft 586 kts 129°
2026-05-04 04:02 -31.86397 145.56824 37131 ft 586 kts 129°
2026-05-04 04:02 -31.91120 145.64032 37131 ft 586 kts 129°
2026-05-04 04:03 -31.95798 145.71182 37112 ft 585 kts 128°
2026-05-04 04:03 -32.00448 145.78307 37113 ft 586 kts 128°
2026-05-04 04:04 -32.05146 145.85516 37117 ft 585 kts 128°
2026-05-04 04:04 -32.09821 145.92703 37118 ft 586 kts 128°
2026-05-04 04:05 -32.14482 145.99878 37112 ft 585 kts 128°
2026-05-04 04:05 -32.19112 146.07025 37110 ft 585 kts 129°
2026-05-04 04:06 -32.23782 146.14243 37112 ft 585 kts 128°
2026-05-04 04:06 -32.28436 146.21458 37114 ft 586 kts 128°
2026-05-04 04:07 -32.33061 146.28628 37117 ft 585 kts 128°
2026-05-04 04:07 -32.37725 146.35886 37117 ft 586 kts 128°
2026-05-04 04:08 -32.42348 146.43086 37119 ft 584 kts 128°
2026-05-04 04:08 -32.46993 146.50333 37121 ft 585 kts 128°
2026-05-04 04:09 -32.51583 146.57513 37124 ft 586 kts 128°
2026-05-04 04:09 -32.56161 146.64690 37119 ft 585 kts 128°
2026-05-04 04:10 -32.60798 146.71968 37107 ft 583 kts 128°
2026-05-04 04:10 -32.65409 146.79217 37106 ft 585 kts 128°
2026-05-04 04:11 -32.69977 146.86420 37110 ft 585 kts 127°
2026-05-04 04:11 -32.74605 146.93732 37112 ft 584 kts 128°
2026-05-04 04:12 -32.79179 147.00966 37116 ft 582 kts 128°
2026-05-04 04:12 -32.83717 147.08153 37113 ft 582 kts 128°
2026-05-04 04:13 -32.88303 147.15440 37117 ft 582 kts 128°
2026-05-04 04:13 -32.92867 147.22700 37121 ft 582 kts 128°
2026-05-04 04:14 -32.97398 147.29927 37122 ft 580 kts 128°
2026-05-04 04:14 -33.01947 147.37190 37125 ft 581 kts 127°
2026-05-04 04:15 -33.06448 147.44397 37125 ft 580 kts 128°
2026-05-04 04:15 -33.10967 147.51643 37122 ft 581 kts 127°
2026-05-04 04:16 -33.15478 147.58894 37116 ft 581 kts 127°
2026-05-04 04:16 -33.19957 147.66110 37114 ft 579 kts 127°